Flag for Germany Weather past 2 weeks in Kempen, North Rhine-Westphalia, Germany

Now
51 °F

Overcast.


Feels Like: 49 °F
Forecast: 44 / 53 °F
Wind: 5 mph from South

Location: Duesseldorf

Current Time: Dec 18, 2014 at 5:39:51 AM

Latest Report: Dec 18, 2014 at 5:00 AM


Visibility: 8 mi

Pressure: 29.82 "Hg

Humidity: 92%

Dew point: 49 °F

Location of KempenLocation

Historic Weather in Kempen — Graph

°F

Kempen temperature yesterday

Maximum temperature yesterday: 49 °F (at 9:00 PM)
Minimum temperature yesterday: 36 °F (at 1:00 AM)
Average temperature yesterday: 43 °F

Past Weeks' High & Low Weather Summary

 TemperatureHumidityPressure
High50 °F (Dec 18, 3:00 AM)100% (Dec 14, 6:00 AM)30.39 "Hg (Dec 14, 6:00 AM)
Low30 °F (Dec 3, 7:00 PM)65% (Dec 7, 3:00 PM)29.41 "Hg (Dec 12, 1:00 PM)
Average40 °F87%29.99 "Hg
* Reported Dec 3 3:00 AM — Dec 18 3:00 AM, Kempen, Weather by CustomWeather, © 2014

Note: Actual official high and low records may vary slightly from our data, if they occured in-between our weather recording intervals... More about our weather records

Advertising

Kempen weather history for previous 24 hours

 ConditionsComfort  
Time TempWeatherWind HumidityBarometerVisibility
3:00 AM
Dec 18
50 °FLow clouds.5 mph95%29.84 "Hg4 mi
2:00 AM50 °FLow clouds.5 mph96%29.84 "Hg2 mi
1:00 AM50 °FLow clouds.5 mph97%29.85 "Hg2 mi
12:00 AM50 °FRain. Low clouds.5 mph98%29.83 "Hg2 mi
11:00 PM
Dec 17
49 °FLow clouds.5 mph97%29.82 "Hg2 mi
10:00 PMN/APassing clouds.3 mphN/AN/A14 mi
9:00 PM49 °FRain. Low clouds.5 mph97%29.78 "Hg2 mi
8:00 PM49 °FLow clouds.5 mph97%29.75 "Hg3 mi
7:00 PM49 °FRain. Low clouds.5 mph97%29.73 "Hg2 mi
6:00 PM48 °FRain. Low clouds.5 mph97%29.71 "Hg2 mi
5:00 PM48 °FRain. Low clouds.6 mph97%29.68 "Hg3 mi
4:00 PM46 °FRain. Low clouds.5 mph97%29.66 "Hg2 mi
3:00 PM46 °FDrizzle. Low clouds.6 mph97%29.64 "Hg2 mi
2:00 PM45 °FLow clouds.7 mph96%29.62 "Hg4 mi
1:00 PM43 °FRain. Low clouds.5 mph96%29.63 "Hg4 mi
12:00 PM42 °FRain. Low clouds.7 mph96%29.64 "Hg4 mi
11:00 AM41 °FRain. Low clouds.8 mph95%29.66 "Hg2 mi
9:00 AM40 °FLight rain. Overcast.8 mph93%29.72 "Hg4 mi
8:00 AM40 °FLight rain. Overcast.8 mph82%29.75 "Hg16 mi
7:00 AM41 °FLight rain. Overcast.8 mph79%29.79 "Hg19 mi
6:00 AM40 °FOvercast.6 mph81%29.83 "Hg19 mi
5:00 AM40 °FOvercast.6 mph84%29.85 "Hg15 mi
Weather by CustomWeather, © 2014

See weather overviewHow to use our weather pages